CZ-6A DEB, 58429

Orbit data source: Space-Track

CZ-6A DEB, 58429 is space debris in SSO originally from a launch on Fri, 11 Nov 2022 UTC launched from the Taiyaun Space Center, China (TSC). Debris objects in space refer to the collection of defunct objects orbiting the Earth. Examples of debris include non-operational satellites, rocket bodies, and fragments generated from explosions, collisions, or faulty payload assembly.

Loading next visibility...
Identifier
58429, 2022-151AHX
Orbit
SSO
Country
Flag of CNCN / PRC
Related business
Manufacturer
SAST
Mission
Spacecraft
Bus & Motor
Unknown
Mass
Unknown
Launch date (UTC)
2022-11-11 (4 years ago)
Launch vehicle
Unknown
Launch site
Taiyaun Space Center, China (TSC)
Object type
Payload
Rocket body
Debris
Shape & HBR
Unknown shape, 0.1 m
Radar Cross Section
Small (<0.1 m²)

Expand to show TLE details & history
Last TLE update: 12 hours ago

TLE from 12 hours ago
0 CZ-6A DEB
1 58429U 22151AHX 26193.93433800  .00000781  00000-0  46265-3 0  9992
2 58429  98.8768 185.4243 0082424 303.3852  55.9450 14.08946116167920
Epoch: 2026-07-12T22:25Z
TLE epoch observation values (Epoch: 2026-07-12T22:25:26.803Z)
Latitude
-0.00007°
Longitude
-81.76345°
Altitude
832.786 km
Speed
7.453 km/s
True Right ascension
12h 21m 41s
True Declination
0° 00' 00"
Sunlit
Object was in daylight at epoch
Visualization orbit readout
Latitude
Unknown
Longitude
Unknown
Altitude
Unknown
Speed
Unknown
Apparent Right ascension
Unknown
Apparent Declination
Unknown
Sunlit
N/A
Visualization observer readout
Local Sidereal Time
22:33:53
Azimuth
Unknown
Elevation
Unknown
Doppler factor
Unknown
Orbital elements
Apogee altitude
919.822 km
Perigee altitude
800.501 km
Semi-major axis
7,238.298 km
Eccentricity
0.00824
Inclination
98.8768°
RAAN
185.4243°
Arg. of periapsis
303.3852°
True anomaly
56.73204°
Mean anomaly
55.945°
Eccentric anomaly
56.33807°
Mean motion
3.52443 °/min
Orbital period
102.14 mins
BSTAR
0.00046265
Loading maneuver chart data...
Computing Atmospheric mass density...
Loading historical data...
Loading historical data...
Loading historical data...
Loading historical data...
Loading historical data...
Loading historical data...
Loading historical data...

Documentation

Showing up to 5 results
|